[[{"header":{"parameterUnit":"m.s-1","parameterCategory":1,"la1":30.2991,"la2":30.254,"lo1":-89.0895,"lo2":-89.0444,"dy":0.0017,"dx":0.0017,"nx":28,"ny":28,"refTime":"2025-08-04T09:00:00:Z","depth":0,"parameterNumber":2,"parameterNumberName":"U-component_of_WINDS"},"data":[0,0,0,0,0,0,0,0,0,0,0,0,0,0,0,0,0,0,0,0,0,0,0,0,0,0,0,0,0,0,0,0,0,0,0,0,0,0,0,0,0,0,0,0,0,0,0,0,0,0,0,0,0,0,0,0,0,0,-2.1268,-2.1269,0,-2.133,-2.1331,-2.1331,-2.1327,-2.1327,-2.1326,-2.1325,-2.1387,-2.1389,-2.1391,0,0,0,0,0,0,0,0,0,0,0,0,0,-2.1143,-2.1145,-2.1268,-2.1269,-2.1269,-2.133,-2.1331,-2.1331,-2.1328,-2.1327,-2.1325,-2.1324,-2.1386,-2.1389,-2.1392,0,0,0,0,0,0,0,0,0,0,0,0,0,-2.12,-2.1146,-2.1268,-2.1275,-2.1276,-2.133,-2.1331,-2.1332,-2.1328,-2.1326,-2.1325,-2.1324,-2.1385,-2.1388,-2.1392,-2.1442,0,0,-2.1403,-2.1405,0,0,0,0,0,0,0,0,-2.1197,-2.1205,-2.1273,-2.1274,-2.1276,-2.132,-2.1309,-2.1369,-2.1328,-2.1308,-2.1325,-2.1323,-2.1365,-2.137,-2.1385,-2.1445,-2.1448,-2.1404,-2.1406,-2.1408,-2.1409,0,0,0,0,0,0,0,-2.1193,-2.1202,-2.1292,-2.1274,-2.1276,-2.1274,-2.128,-2.132,-2.1343,-2.131,-2.131,-2.1317,-2.1366,-2.1381,-2.1386,-2.1448,-2.1404,-2.1407,-2.1409,-2.1411,-2.155,-2.1551,0,0,0,0,0,0,-2.1188,-2.1199,-2.129,-2.1294,-2.1232,-2.1277,-2.1285,-2.1307,-2.1343,-2.1347,-2.1318,-2.1317,-2.1376,-2.1382,-2.1389,-2.1448,-2.1408,-2.1411,-2.1413,-2.1548,-2.155,-2.1552,0,0,0,0,0,0,-2.1185,-2.1196,-2.1288,-2.1247,-2.1258,-2.1281,-2.1306,-2.1309,-2.1324,-2.1349,-2.1353,-2.133,-2.1375,-2.1383,-2.1428,-2.145,-2.1413,-2.1416,-2.1547,-2.1549,-2.1551,-2.1567,0,0,0,0,0,0,-2.1182,-2.1195,-2.1215,-2.1247,-2.126,-2.1328,-2.1307,-2.1311,-2.1331,-2.133,-2.1362,-2.1366,-2.1375,-2.1423,-2.1432,-2.1454,-2.1419,-2.1545,-2.1548,-2.155,-2.1565,-2.157,-2.1574,0,0,0,0,0,-2.1177,-2.1218,-2.1216,-2.1227,-2.1286,-2.1329,-2.1336,-2.1346,-2.1333,-2.1353,-2.1368,-2.1365,-2.1446,-2.1427,-2.1438,-2.1462,-2.1543,-2.1547,-2.155,-2.1563,-2.1569,-2.1574,0,0,0,0,0,0,-2.1188,-2.1222,-2.1221,-2.1273,-2.1298,-2.1328,-2.1353,-2.1353,-2.1382,-2.1379,-2.1389,-2.1397,-2.1441,-2.1456,-2.1435,-2.151,-2.1493,-2.1498,-2.1499,-2.1505,-2.151,-2.1505,-2.1422,0,0,0,0,0,-2.1196,-2.1229,-2.1257,-2.13,-2.1312,-2.1331,-2.135,-2.1355,-2.1381,-2.1392,-2.1411,-2.1436,-2.1466,-2.1487,-2.1517,-2.1567,-2.1573,-2.1589,-2.1593,-2.1597,-2.1601,-2.1626,-2.1633,-2.1562,-2.1562,-2.1562,0,0,-2.1214,-2.1236,-2.1256,-2.1302,-2.1323,-2.1355,-2.134,-2.1375,-2.1399,-2.1397,-2.144,-2.1455,-2.1483,-2.153,-2.1552,-2.1544,-2.1622,-2.1601,-2.1604,-2.1606,-2.163,-2.1637,-2.1643,-2.1565,-2.1564,-2.1564,0,0,-2.1262,-2.1283,-2.1321,-2.1341,-2.1371,-2.1383,-2.1392,-2.1422,-2.1431,-2.1475,-2.1474,-2.1501,-2.1555,-2.1575,-2.1592,-2.1645,-2.1642,-2.1655,-2.1678,-2.1703,-2.1709,-2.1713,-2.1731,-2.1737,-2.1659,-2.1659,-2.1659,0,-2.128,-2.133,-2.134,-2.1375,-2.1394,-2.1394,-2.1431,-2.145,-2.1488,-2.1501,-2.1492,-2.1558,-2.1577,-2.1628,-2.1641,-2.1655,-2.1664,-2.1651,-2.1707,-2.1712,-2.1717,-2.1734,-2.174,-2.1661,-2.1661,-2.166,-2.166,0,-2.1349,-2.1383,-2.141,-2.1446,-2.1469,-2.1505,-2.1519,-2.1541,-2.1543,-2.1556,-2.1599,-2.1622,-2.1655,-2.1668,-2.1671,-2.1719,-2.1712,-2.1705,-2.1687,-2.1725,-2.174,-2.1747,-2.1662,-2.1662,-2.1662,-2.1661,0,0,-2.1406,-2.1447,-2.1457,-2.1473,-2.1505,-2.1532,-2.1567,-2.16,-2.1617,-2.1643,-2.1671,-2.1716,-2.1709,-2.1728,-2.1733,-2.1755,-2.1794,-2.1745,-2.1746,-2.1752,-2.1845,-2.1849,-2.1857,-2.1792,-2.1794,-2.1795,-2.1842,0,-2.1457,-2.152,-2.1529,-2.1584,-2.1614,-2.1614,-2.1644,-2.1666,-2.1678,-2.1705,-2.1718,-2.1749,-2.1738,-2.1749,-2.1771,-2.1785,-2.1812,-2.1781,-2.1817,-2.1818,-2.1809,-2.1865,-2.1871,-2.1914,-2.1848,-2.1849,-2.185,0,-2.1524,-2.1552,-2.161,-2.1636,-2.165,-2.1677,-2.1707,-2.1733,-2.1758,-2.1765,-2.1785,-2.1787,-2.1822,-2.1803,-2.185,-2.1829,-2.1844,-2.1853,-2.1854,-2.1857,-2.1836,-2.1868,-2.1929,-2.1935,-2.186,-2.186,-2.1859,0,-2.1558,-2.161,-2.165,-2.1664,-2.1697,-2.1716,-2.173,-2.1754,-2.1772,-2.1798,-2.181,-2.184,-2.1856,-2.1878,-2.1887,-2.1873,-2.1933,-2.1915,-2.1938,-2.1937,-2.195,-2.1949,-2.2012,-2.1962,-2.1962,-2.1961,-2.1961,0,-2.1613,-2.1648,-2.1666,-2.1691,-2.1729,-2.1739,-2.1776,-2.179,-2.1811,-2.1837,-2.1838,-2.1863,-2.1875,-2.1901,-2.1908,-2.1944,-2.1952,-2.1957,-2.1959,-2.1957,-2.1956,-2.1966,-2.1963,-2.1963,-2.1963,-2.1963,-2.1962,0,-2.1657,-2.1671,-2.1715,-2.1742,-2.1749,-2.1776,-2.1799,-2.1822,-2.1833,-2.1866,-2.1875,-2.1892,-2.1922,-2.1934,-2.1972,-2.1976,-2.2018,-2.2018,-2.201,-2.201,-2.2031,-2.2028,-2.2102,-2.2112,-2.2056,-2.2057,-2.2057,0,-2.169,-2.1717,-2.1747,-2.1765,-2.178,-2.1809,-2.1827,-2.1838,-2.1857,-2.1886,-2.1905,-2.1936,-2.196,-2.2009,-2.2024,-2.2052,-2.2051,-2.2075,-2.2055,-2.2052,-2.2049,-2.2047,-2.2049,-2.2078,-2.2079,-2.2079,-2.208,0,-2.1748,-2.1753,-2.178,-2.181,-2.1832,-2.1856,-2.1878,-2.1893,-2.1906,-2.1927,-2.1958,-2.1978,-2.2015,-2.2044,-2.2073,-2.2086,-2.2084,-2.2086,-2.2092,-2.209,-2.2084,-2.2086,-2.2018,-2.2084,-2.2084,-2.2083,-2.2083,-2.2083,-2.1787,-2.181,-2.1834,-2.1863,-2.1882,-2.1902,-2.1925,-2.1939,-2.1965,-2.1997,-2.2001,-2.2033,-2.2055,-2.2093,-2.2108,-2.2133,-2.2126,-2.2136,-2.2138,-2.214,-2.2141,-2.208,-2.2138,-2.2138,-2.2138,-2.2138,-2.2138,0,-2.1843,-2.1858,-2.1885,-2.1917,-2.194,-2.1937,-2.1962,-2.1981,-2.201,-2.2031,-2.2055,-2.2089,-2.2117,-2.2134,-2.2162,-2.2178,-2.2178,-2.2185,-2.2183,-2.2186,-2.2146,-2.2137,-2.2185,-2.2185,-2.2185,-2.2185,-2.2185,-2.2185,-2.1875,-2.1913,-2.192,-2.1966,-2.1981,-2.2014,-2.2027,-2.2046,-2.2063,-2.2101,-2.2125,-2.2136,-2.2154,-2.2183,-2.2208,-2.2212,-2.2222,-2.2229,-2.2232,-2.2194,-2.2189,-2.2185,-2.2176,-2.2231,-2.2231,-2.227,-2.227,-2.2271]},{"header":{"parameterUnit":"m.s-1","parameterCategory":1,"la1":30.2991,"la2":30.254,"lo1":-89.0895,"lo2":-89.0444,"dy":0.0017,"dx":0.0017,"nx":28,"ny":28,"refTime":"2025-08-04T09:00:00:Z","depth":0,"parameterNumber":3,"parameterNumberName":"V-component_of_WINDS"},"data":[0,0,0,0,0,0,0,0,0,0,0,0,0,0,0,0,0,0,0,0,0,0,0,0,0,0,0,0,0,0,0,0,0,0,0,0,0,0,0,0,0,0,0,0,0,0,0,0,0,0,0,0,0,0,0,0,0,0,-0.5295,-0.5296,0,-0.5429,-0.5431,-0.5432,-0.5535,-0.5536,-0.5537,-0.5538,-0.5674,-0.5677,-0.568,0,0,0,0,0,0,0,0,0,0,0,0,0,-0.5124,-0.5126,-0.5294,-0.5296,-0.5298,-0.5429,-0.5431,-0.5433,-0.5535,-0.5536,-0.5537,-0.5538,-0.5674,-0.5677,-0.568,0,0,0,0,0,0,0,0,0,0,0,0,0,-0.5222,-0.5127,-0.5294,-0.5364,-0.5372,-0.5429,-0.5431,-0.5433,-0.5534,-0.5536,-0.5537,-0.5538,-0.5672,-0.5677,-0.5681,-0.5678,0,0,-0.5693,-0.5695,0,0,0,0,0,0,0,0,-0.5216,-0.5228,-0.5352,-0.536,-0.5368,-0.5467,-0.5421,-0.5515,-0.5534,-0.5473,-0.5538,-0.5539,-0.5604,-0.5614,-0.5636,-0.5684,-0.569,-0.5694,-0.5696,-0.5698,-0.5699,0,0,0,0,0,0,0,-0.5209,-0.5223,-0.5348,-0.5354,-0.5364,-0.5389,-0.5404,-0.5439,-0.5529,-0.5478,-0.5486,-0.55,-0.5609,-0.5632,-0.564,-0.5692,-0.5694,-0.5697,-0.57,-0.5701,-0.5743,-0.5742,0,0,0,0,0,0,-0.5192,-0.5217,-0.5344,-0.5352,-0.5294,-0.5391,-0.5408,-0.5434,-0.5529,-0.5545,-0.5499,-0.5505,-0.5624,-0.5635,-0.5645,-0.5647,-0.5698,-0.5702,-0.5704,-0.5744,-0.5743,-0.5741,0,0,0,0,0,0,-0.5188,-0.5202,-0.5338,-0.5286,-0.5306,-0.5392,-0.542,-0.5436,-0.5459,-0.5545,-0.5561,-0.5506,-0.5626,-0.5639,-0.5669,-0.5653,-0.5704,-0.5707,-0.5746,-0.5744,-0.5742,-0.565,0,0,0,0,0,0,-0.5182,-0.52,-0.52,-0.5286,-0.5308,-0.5359,-0.5419,-0.5437,-0.5466,-0.5474,-0.5556,-0.5571,-0.5628,-0.5662,-0.5673,-0.566,-0.5711,-0.5748,-0.5745,-0.5743,-0.5655,-0.5645,-0.5637,0,0,0,0,0,-0.5176,-0.5169,-0.52,-0.5214,-0.531,-0.5358,-0.5371,-0.5437,-0.5464,-0.5465,-0.552,-0.5568,-0.5653,-0.5664,-0.5677,-0.5665,-0.5749,-0.5746,-0.5743,-0.5659,-0.5647,-0.5637,0,0,0,0,0,0,-0.5079,-0.5182,-0.5217,-0.5238,-0.5288,-0.5375,-0.5378,-0.5423,-0.5467,-0.5473,-0.5554,-0.5571,-0.5591,-0.5632,-0.5642,-0.5666,-0.5707,-0.5707,-0.5639,-0.5628,-0.562,-0.5608,-0.5714,0,0,0,0,0,-0.5061,-0.5092,-0.5179,-0.5189,-0.5213,-0.5291,-0.5314,-0.5361,-0.5417,-0.5439,-0.5496,-0.5548,-0.5587,-0.561,-0.5651,-0.5662,-0.568,-0.566,-0.5651,-0.5643,-0.5641,-0.5648,-0.5639,-0.5731,-0.5731,-0.5731,0,0,-0.5022,-0.5082,-0.5096,-0.5171,-0.5216,-0.5246,-0.5308,-0.5337,-0.536,-0.5443,-0.5474,-0.5517,-0.5581,-0.56,-0.5612,-0.5635,-0.562,-0.5639,-0.5632,-0.5634,-0.5644,-0.5635,-0.5627,-0.5729,-0.5729,-0.573,0,0,-0.4966,-0.5015,-0.5028,-0.5072,-0.5139,-0.5191,-0.5194,-0.5274,-0.5306,-0.5338,-0.5401,-0.5429,-0.5494,-0.5536,-0.5565,-0.5524,-0.557,-0.5536,-0.5487,-0.5493,-0.5486,-0.548,-0.5463,-0.5457,-0.5534,-0.5533,-0.5533,0,-0.4909,-0.4957,-0.5029,-0.5054,-0.5084,-0.5162,-0.5174,-0.5213,-0.529,-0.5308,-0.5333,-0.5415,-0.5464,-0.5493,-0.5483,-0.5505,-0.551,-0.5526,-0.5482,-0.5476,-0.5472,-0.5457,-0.545,-0.5529,-0.5529,-0.553,-0.553,0,-0.4883,-0.4914,-0.4917,-0.4988,-0.5019,-0.5038,-0.5112,-0.5134,-0.5178,-0.5227,-0.5258,-0.5318,-0.5371,-0.5382,-0.5426,-0.5418,-0.5429,-0.5467,-0.5509,-0.5457,-0.5444,-0.5439,-0.5522,-0.5523,-0.5525,-0.5526,0,0,-0.4769,-0.488,-0.488,-0.4912,-0.4992,-0.5018,-0.5039,-0.5091,-0.5108,-0.5159,-0.5177,-0.523,-0.5265,-0.5299,-0.5348,-0.5353,-0.5314,-0.539,-0.5393,-0.5372,-0.5306,-0.5276,-0.5268,-0.5345,-0.5345,-0.5344,-0.53,0,-0.4724,-0.4767,-0.4832,-0.4854,-0.4883,-0.4957,-0.4976,-0.5026,-0.5072,-0.5103,-0.5154,-0.5189,-0.5234,-0.5254,-0.5263,-0.5317,-0.5302,-0.5321,-0.5362,-0.5363,-0.5342,-0.5262,-0.5231,-0.5186,-0.5296,-0.5295,-0.5295,0,-0.4677,-0.4723,-0.4747,-0.4823,-0.4838,-0.4853,-0.4905,-0.4935,-0.4993,-0.5026,-0.5063,-0.5116,-0.5141,-0.5181,-0.5216,-0.5228,-0.5249,-0.5278,-0.5277,-0.5282,-0.5324,-0.5262,-0.5174,-0.5166,-0.5288,-0.5288,-0.5289,0,-0.4589,-0.4657,-0.468,-0.4706,-0.4796,-0.4805,-0.4842,-0.4902,-0.4929,-0.4974,-0.4992,-0.504,-0.5065,-0.5101,-0.5165,-0.5188,-0.5192,-0.5238,-0.5219,-0.5217,-0.5215,-0.5214,-0.5126,-0.5232,-0.5232,-0.5232,-0.5232,0,-0.4531,-0.4542,-0.4641,-0.4654,-0.4669,-0.4744,-0.4756,-0.48,-0.4852,-0.4875,-0.4943,-0.4963,-0.5047,-0.5077,-0.5127,-0.5147,-0.5159,-0.5185,-0.5198,-0.5178,-0.5174,-0.5191,-0.5195,-0.523,-0.5231,-0.5231,-0.5231,0,-0.4434,-0.4501,-0.453,-0.4613,-0.4634,-0.464,-0.4711,-0.4727,-0.4777,-0.4805,-0.4816,-0.4894,-0.4932,-0.5,-0.5057,-0.5091,-0.51,-0.5124,-0.508,-0.5088,-0.5064,-0.5065,-0.4983,-0.4975,-0.5087,-0.5086,-0.5085,0,-0.4391,-0.4401,-0.4485,-0.4505,-0.454,-0.4572,-0.46,-0.4674,-0.4699,-0.4766,-0.4772,-0.4816,-0.4854,-0.4912,-0.4973,-0.5017,-0.5041,-0.5009,-0.5048,-0.5026,-0.5037,-0.5035,-0.5035,-0.4999,-0.4998,-0.4997,-0.4996,0,-0.4307,-0.434,-0.4377,-0.4425,-0.4456,-0.4497,-0.4542,-0.4555,-0.4639,-0.4664,-0.4703,-0.4733,-0.4791,-0.4833,-0.4885,-0.4924,-0.4972,-0.4983,-0.4981,-0.4959,-0.4932,-0.4944,-0.5054,-0.4984,-0.4985,-0.4986,-0.4987,-0.4987,-0.4235,-0.4247,-0.4307,-0.4346,-0.4387,-0.4427,-0.4445,-0.4498,-0.4532,-0.4585,-0.4627,-0.4663,-0.472,-0.4796,-0.4831,-0.4859,-0.4882,-0.4879,-0.4878,-0.4876,-0.4867,-0.4929,-0.487,-0.487,-0.487,-0.4871,-0.4871,0,-0.4152,-0.4195,-0.423,-0.429,-0.432,-0.4365,-0.4416,-0.4438,-0.4469,-0.4518,-0.4554,-0.4599,-0.4639,-0.4704,-0.4749,-0.4759,-0.4783,-0.4768,-0.4767,-0.4775,-0.4845,-0.4841,-0.4749,-0.4749,-0.4749,-0.4749,-0.4749,-0.4749,-0.4113,-0.4135,-0.4174,-0.4217,-0.4259,-0.4295,-0.432,-0.4357,-0.4397,-0.4443,-0.4477,-0.4519,-0.4574,-0.4624,-0.4662,-0.468,-0.4693,-0.4671,-0.4695,-0.4759,-0.477,-0.4781,-0.4778,-0.4674,-0.4673,-0.4623,-0.4622,-0.4622]}]]